This is the latest recevied weather packets stored in our database for station/object K6POO-1. If no packets are shown the sender has not sent any weather packets the latest 10 day(s).
| Time | Temp. | Humidity | Pressure | Rain* | Wind** | Luminosity | Snow |
|---|---|---|---|---|---|---|---|
| 1777650550 | 11.67° C | 92% | 1015.9 hPa | 0 mm | - | 78 W/m² | - |
| 1777650248 | 11.67° C | 92% | 1015.8 hPa | 0 mm | - | 79 W/m² | - |
| 1777649944 | 11.67° C | 92% | 1015.8 hPa | 0 mm | - | 78 W/m² | - |
| 1777649642 | 11.67° C | 92% | 1016 hPa | 0 mm | - | 76 W/m² | - |
| 1777649337 | 11.67° C | 92% | 1015.8 hPa | 0 mm | - | 71 W/m² | - |
| 1777649035 | 11.67° C | 92% | 1015.8 hPa | 0 mm | - | 73 W/m² | - |
| 1777648733 | 11.67° C | 92% | 1015.7 hPa | 0 mm | - | 63 W/m² | - |
| 1777648429 | 11.67° C | 92% | 1015.6 hPa | 0 mm | - | 65 W/m² | - |
| 1777648125 | 11.67° C | 92% | 1015.5 hPa | 0 mm | - | 66 W/m² | - |
| 1777647821 | 11.67° C | 92% | 1015.6 hPa | 0 mm | - | 52 W/m² | - |
| 1777647517 | 11.67° C | 92% | 1015.7 hPa | 0 mm | - | 51 W/m² | - |
| 1777647215 | 11.67° C | 92% | 1015.7 hPa | 0 mm | - | 40 W/m² | - |
| 1777646912 | 11.67° C | 92% | 1015.5 hPa | 0 mm | - | 40 W/m² | - |
| 1777646607 | 11.67° C | 92% | 1015.5 hPa | 0 mm | - | 40 W/m² | - |
| 1777646304 | 11.67° C | 92% | 1015.2 hPa | 0 mm | - | 37 W/m² | - |
| 1777646001 | 11.67° C | 92% | 1015.3 hPa | 0 mm | - | 35 W/m² | - |
| 1777645698 | 11.67° C | 92% | 1015.1 hPa | 0 mm | - | 31 W/m² | - |
| 1777645394 | 11.67° C | 92% | 1015.2 hPa | 0 mm | - | 30 W/m² | - |
| 1777645090 | 11.67° C | 92% | 1015.2 hPa | 0 mm | - | 28 W/m² | - |
| 1777644786 | 11.67° C | 92% | 1015.2 hPa | 0 mm | - | 27 W/m² | - |
| 1777644484 | 11.67° C | 92% | 1015.1 hPa | 0 mm | - | 23 W/m² | - |
| 1777644180 | 11.67° C | 92% | 1015.1 hPa | 0 mm | - | 19 W/m² | - |
| 1777643876 | 11.67° C | 92% | 1014.8 hPa | 0 mm | - | 17 W/m² | - |
| 1777643575 | 11.67° C | 92% | 1014.9 hPa | 0 mm | - | 15 W/m² | - |
| 1777643271 | 11.67° C | 92% | 1014.8 hPa | 0 mm | - | 12 W/m² | - |
* Rain latest hour (hover to see other rain measurements)
** Current wind speed in m/s (hover to see current wind gust speed)